EST,Max TemperatureF,Mean TemperatureF,Min TemperatureF,Max Dew PointF,MeanDew PointF,Min DewpointF,Max Humidity, Mean Humidity, Min Humidity, Max Sea Level PressureIn, Mean Sea Level PressureIn, Min Sea Level PressureIn, Max VisibilityMiles, Mean VisibilityMiles, Min VisibilityMiles, Max Wind SpeedMPH, Mean Wind SpeedMPH, Max Gust SpeedMPH,PrecipitationIn, CloudCover, Events, WindDirDegrees
2012-12-1,57,44,30,39,36,28,100,74,51,30.35,30.31,30.28,20,13,10,18,4,,0.00,3,,227
2012-12-2,62,56,51,54,49,43,100,80,52,30.21,30.15,30.09,10,7,2,25,13,31,0.00,7,Rain,214
2012-12-3,60,56,53,57,56,54,100,97,88,30.25,30.22,30.19,10,4,2,9,5,,0.00,8,Rain,213
2012-12-4,69,61,53,57,54,50,100,76,53,30.19,30.10,30.01,20,14,4,20,12,29,0.00,6,Rain,217
2012-12-5,42,38,33,39,31,23,100,78,65,30.36,30.29,30.20,15,11,8,14,9,,0.00,7,,289
2012-12-6,50,36,23,28,25,21,100,61,32,30.31,30.18,30.09,20,12,10,9,3,,0.00,3,,99
2012-12-7,51,46,42,52,50,43,100,100,100,30.03,29.99,29.94,7,3,0,8,3,,0.00,8,Rain,219
2012-12-8,55,53,50,55,53,46,100,98,87,30.06,29.92,29.87,10,7,3,12,10,17,0.00,8,Rain,219
2012-12-9,53,47,41,54,45,39,100,91,82,30.13,30.03,29.88,20,11,5,14,9,,0.00,8,Rain,109
2012-12-10,57,47,35,55,50,36,100,97,88,29.78,29.67,29.58,15,6,1,14,10,25,0.00,8,Rain,228
2012-12-11,37,35,33,36,33,30,100,89,75,30.20,30.07,29.92,20,10,2,10,7,,0.00,8,Rain,271
2012-12-12,39,34,28,30,27,23,100,77,56,30.43,30.40,30.38,20,11,10,7,2,,0.00,1,,218
2012-12-13,44,32,21,30,23,21,100,73,39,30.43,30.36,30.11,20,12,6,6,1,,0.00,0,,199
2012-12-14,48,38,28,30,29,23,87,69,50,30.31,30.27,30.24,20,13,10,14,6,,0.00,1,,229
2012-12-15,53,42,30,32,27,21,100,56,30,30.23,30.10,29.99,20,14,10,9,2,,0.00,6,,155
2012-12-16,57,55,53,52,46,37,82,71,54,29.88,29.82,29.76,15,11,10,21,9,,0.00,7,,191
2012-12-17,57,52,46,54,50,46,100,95,77,29.79,29.68,29.54,20,10,2,12,5,,0.00,7,Rain,210
2012-12-18,46,40,33,46,37,32,100,92,87,29.84,29.73,29.55,10,8,5,17,13,29,0.00,6,Rain,249
2012-12-19,44,38,32,39,37,32,100,89,76,30.18,30.04,29.86,10,8,3,12,7,,0.00,6,,249
2012-12-20,44,42,41,39,35,32,87,76,61,30.04,29.75,29.46,10,8,3,22,13,39,0.00,6,Rain,143
2012-12-21,33,32,30,32,29,27,100,90,80,29.62,29.45,29.37,10,4,1,22,16,30,0.00,8,Snow,247
2012-12-22,32,31,30,27,24,23,80,73,69,30.09,30.00,29.86,15,11,4,18,14,25,0.00,8,Snow,267
2012-12-23,39,32,24,28,25,21,86,73,60,30.01,29.96,29.89,20,15,10,12,9,23,0.00,1,,229
2012-12-24,39,31,23,37,30,23,100,88,65,30.00,29.86,29.79,10,7,2,10,6,18,0.00,7,Rain,156
2012-12-25,35,34,32,36,33,30,100,95,87,30.21,30.16,30.04,10,8,3,8,6,,0.00,8,Rain,355
2012-12-26,33,30,28,30,29,28,100,91,87,30.05,29.78,29.58,10,5,0,14,10,29,0.00,8,Rain-Snow,43
2012-12-27,32,31,30,30,29,28,100,93,87,30.07,29.96,29.75,15,9,2,16,13,,0.00,8,Snow,273
2012-12-28,32,28,24,27,24,23,93,80,69,30.16,30.09,29.96,15,11,8,9,2,,0.00,5,,245
2012-12-29,33,32,32,34,31,28,100,95,87,29.87,29.71,29.53,10,5,0,14,7,23,0.00,8,Rain-Snow,264
2012-12-30,30,29,28,27,24,23,86,81,75,30.35,30.28,30.12,15,9,3,17,12,29,0.00,8,Snow,253
2012-12-31,33,28,24,32,26,21,100,83,65,30.23,30.12,30.03,10,7,1,20,15,29,0.00,8,Snow,219